Temperature
20 20 19 19 19 18 18 18 18 18 18 18 18 18 18 18 17 17 17 17 17 17 17 17 17 17 17 17 17 17 16 16 16 17 16 16 16 16 16 16 16 16 16
20 19 19 19 19 19 18 18 18 18 18 18 18 18 18 18 17 17 17 17 17 17 17 16 17 17 17 17 16 16 16 16 16 16 16 16 16 16 16 16 16 16 16
20 19 19 19 19 18 18 18 18 18 18 18 18 18 18 17 17 17 17 17 17 17 16 16 16 16 16 16 16 16 16 16 16 16 16 16 16 16 16 15 15 16 15
20 20 19 19 19 18 18 18 18 18 18 17 17 17 17 17 17 17 17 17 17 16 16 16 16 16 16 16 16 16 16 16 16 16 16 16 15 15 15 15 15 15 15
20 19 19 19 19 18 18 18 18 18 18 17 17 17 17 17 17 17 17 17 17 16 16 16 16 16 16 16 16 16 16 16 15 15 15 15 15 15 15 15 15 15 15
19 19 19 19 19 18 18 18 18 18 17 17 17 17 17 17 17 17 17 16 16 16 16 16 16 16 16 16 16 15 15 15 15 15 15 15 15 15 15 14 14 14 14
19 19 19 19 18 18 18 18 18 18 17 17 17 17 17 17 16 16 16 16 16 16 16 16 15 15 15 15 15 15 15 15 15 15 15 15 15 15 14 14 14 14 14
19 19 19 18 18 18 18 18 18 17 17 17 17 17 17 16 16 16 16 16 16 16 15 15 15 15 15 15 15 15 15 15 15 14 14 14 14 14 14 14 14 14 14
18 18 18 18 18 18 18 17 17 17 17 17 17 16 16 16 16 16 16 16 15 15 15 15 15 15 15 15 15 15 15 15 15 14 14 14 14 14 14 14 14 13 13
18 18 18 17 17 17 17 17 17 17 16 16 16 16 16 16 16 16 15 15 15 15 15 15 15 15 15 14 14 14 14 14 14 14 14 14 14 14 14 14 13 13 13
17 17 17 17 17 17 17 16 16 16 16 16 16 16 15 15 15 15 15 15 15 15 15 15 15 14 14 14 14 14 14 14 14 14 14 14 14 14 14 13 13 13 13
17 16 16 16 16 16 16 16 16 16 15 15 15 15 15 15 15 15 15 15 14 14 14 14 14 14 14 14 14 14 14 14 14 13 13 13 13 13 13 13 13 13 13
16 16 16 15 15 15 15 15 15 15 15 15 15 14 14 15 15 14 14 14 14 14 14 14 14 14 14 14 13 13 13 13 13 13 13 13 13 13 13 13 13 12 12
15 15 15 15 15 15 15 15 14 14 14 14 14 14 14 14 14 14 14 14 13 13 13 13 13 13 13 13 13 13 12 12 12 12 12 12 12 12 12 12 12 12 12
15 15 15 15 14 14 14 14 14 14 14 14 13 13 13 13 13 13 13 13 13 13 13 13 13 13 13 13 13 12 12 12 12 12 12 12 12 12 12 11 11 11 11
14 14 14 14 14 14 14 14 13 13 13 13 13 13 13 13 13 12 12 12 12 12 12 12 12 12 12 12 12 12 12 12 11 11 11 11 11 11 11 11 11 10 10
14 14 14 14 14 14 13 13 13 13 13 13 13 12 12 12 12 12 12 12 12 12 12 12 12 12 12 11 11 11 11 11 11 11 11 11 11 11 10 10 10 10 10
14 14 13 13 13 13 13 13 13 13 13 12 12 12 12 12 12 12 11 11 11 11 11 11 11 11 11 11 10 10 10 10 10 10 10 10 10 10 10 10 10 10 9
13 13 13 13 13 13 13 12 12 12 12 12 12 11 11 11 11 11 11 11 11 11 10 10 10 10 10 10 10 10 10 10 9 9 9 9 9 9 9 9 9 9 9
13 13 13 13 13 12 12 12 12 12 12 12 11 11 11 11 11 11 11 10 10 10 10 10 10 10 10 9 9 9 9 9 9 9 9 9 9 9 8 8 8 8 8
12 12 12 12 12 12 12 12 12 12 11 11 11 11 11 11 10 10 10 10 10 10 10 9 9 9 9 9 9 9 9 8 8 8 8 8 8 8 8 8 8 8 8
12 12 12 12 12 12 12 12 12 11 11 11 11 11 10 10 10 10 10 10 9 9 9 9 9 9 9 8 8 8 8 8 8 8 8 8 7 7 7 7 7 7 7
12 11 11 11 11 11 11 11 11 11 11 11 10 10 10 10 10 9 9 9 9 9 9 8 8 8 8 8 8 7 7 7 7 7 7 7 7 7 7 7 7 7 6
11 11 11 11 11 11 11 11 11 11 10 10 10 10 10 9 9 9 9 9 8 8 8 8 8 7 7 7 7 7 7 6 6 6 6 6 6 6 6 6 6 6 6
11 11 11 11 11 11 11 10 10 10 10 10 10 9 9 9 9 9 8 8 8 8 7 7 7 7 7 6 6 6 6 6 6 6 6 6 6 6 6 6 6 5 5
10 11 10 10 10 10 10 10 10 10 9 9 9 9 9 8 8 8 8 7 7 7 7 7 6 6 6 6 6 6 6 6 6 5 5 5 5 5 5 5 5 5 5
Wind_Speed
9 8 6 6 5 5 5 5 5 4 4 4 4 4 4 4 3 3 3 3 3 3 2 2 3 2 2 2 2 2 2 3 4 4 2 2 2 3 3 5 7 7 8
8 7 7 6 6 6 6 5 5 5 4 5 5 4 4 4 4 4 4 4 4 3 3 3 4 3 3 3 2 3 3 3 4 4 3 2 3 3 3 3 4 6 7
8 7 6 6 6 6 6 5 5 5 5 5 4 5 5 5 4 4 5 4 4 4 4 4 4 3 3 3 3 3 3 3 3 3 3 2 2 1 1 2 3 3 6
7 7 6 6 6 6 6 6 6 6 6 5 5 5 5 5 5 5 4 4 4 4 4 4 4 4 5 4 4 4 3 2 2 2 3 2 2 2 1 2 3 3 4
7 7 7 6 6 6 6 6 6 6 6 5 5 4 4 4 4 5 5 5 5 4 4 4 4 5 5 5 4 3 3 3 2 2 3 2 2 2 3 3 4 3 4
8 8 7 6 6 6 7 6 6 6 6 5 5 5 4 4 5 6 6 4 4 5 5 4 5 5 5 6 5 5 4 4 4 4 3 4 5 4 3 3 3 2 4
7 7 6 6 6 5 6 5 6 6 6 5 5 5 5 5 5 5 6 5 4 5 5 4 4 4 4 4 4 4 5 6 6 6 5 6 5 5 4 4 4 5 5
5 5 6 6 5 5 4 5 5 5 5 5 5 5 5 5 5 5 5 5 4 4 5 5 5 4 4 3 3 3 4 5 6 5 6 6 5 5 5 5 5 5 4
5 5 5 6 6 5 5 5 5 4 4 5 4 5 5 5 5 6 6 4 4 4 4 4 4 4 4 4 3 3 4 5 6 6 6 6 7 6 4 2 2 2 4
4 4 4 5 5 6 6 5 4 4 4 4 4 4 5 5 5 6 7 4 4 4 3 3 3 4 4 4 4 4 5 6 4 3 4 5 5 6 6 5 5 4 3
3 3 3 3 4 4 4 3 3 4 3 3 3 3 3 4 5 5 6 4 4 4 3 3 4 5 5 5 5 5 7 6 4 3 3 4 3 4 4 5 5 5 5
2 2 2 2 3 3 2 2 2 3 3 2 2 1 1 2 2 3 4 5 4 3 4 4 4 5 5 5 5 6 6 4 2 2 3 3 4 4 5 5 7 7 8
2 1 1 1 1 1 2 2 2 2 2 1 1 1 2 2 2 1 2 2 3 3 3 3 4 4 4 4 5 4 3 2 2 2 3 4 4 5 4 3 4 5 6
2 1 1 2 1 1 1 2 2 2 2 1 1 2 2 2 1 1 1 1 1 1 2 3 3 3 1 2 2 2 2 2 2 3 3 3 3 3 3 3 3 3 3
2 1 1 2 2 1 1 1 1 2 3 4 3 3 2 2 4 4 2 3 2 2 1 1 1 1 2 2 2 2 2 1 1 2 2 2 3 3 4 3 2 2 3
2 1 1 1 1 2 2 2 3 1 2 4 3 3 3 4 4 4 3 2 1 2 3 1 1 1 2 2 2 2 2 2 2 2 2 2 3 3 4 4 3 3 4
2 1 1 1 2 2 2 2 1 2 3 2 1 0 1 1 1 1 0 2 2 4 2 1 1 2 2 2 2 2 2 2 2 1 2 2 2 3 3 4 4 4 5
2 2 2 1 1 1 1 2 2 2 1 1 2 2 2 2 2 2 2 3 2 2 1 1 2 2 2 2 2 2 2 2 1 1 2 2 2 3 4 4 4 5 5
1 1 1 1 1 1 1 1 1 2 1 1 0 1 2 2 3 3 3 2 1 1 1 1 1 1 1 1 1 1 1 1 1 1 2 2 2 3 4 5 5 6 5
1 2 3 2 1 1 1 1 1 1 1 1 1 1 0 2 2 2 1 1 1 0 1 1 1 1 1 1 1 1 1 1 1 2 2 3 3 3 4 5 5 5 5
1 2 4 3 2 2 2 2 2 2 2 1 1 1 3 2 1 1 0 0 0 0 1 1 1 2 1 1 1 1 1 1 1 1 2 3 3 3 4 4 5 5 5
2 2 2 2 2 2 1 1 2 2 2 2 1 1 2 2 1 1 0 1 0 0 0 1 1 1 1 1 1 1 1 1 2 2 2 3 3 4 4 4 4 4 4
2 2 2 2 2 2 2 2 1 2 1 1 1 1 1 1 1 1 1 1 1 1 1 1 2 2 2 2 2 1 1 2 3 3 3 3 4 4 4 4 5 5 5
2 2 2 2 2 3 2 2 2 2 1 2 2 1 1 1 1 1 1 1 1 2 2 2 2 2 2 2 3 3 3 4 4 3 4 4 4 4 4 4 5 6 5
2 2 2 2 2 2 2 2 2 2 2 2 2 2 1 1 1 1 1 2 2 3 3 3 2 2 3 3 3 4 5 6 6 5 4 3 4 4 4 5 5 5 6
2 2 2 2 2 2 2 2 2 2 2 2 2 2 2 2 2 2 2 2 2 2 2 2 3 3 3 4 5 6 6 7 7 7 5 3 3 4 4 4 6 6 6
Wind_Direction
182 184 185 184 184 177 178 188 190 184 178 177 185 187 194 199 197 192 204 197 205 228 237 226 241 239 244 244 223 212 209 191 229 263 252 262 230 224 220 219 225 221 226
177 176 182 182 182 186 191 193 188 185 187 186 187 188 198 202 200 199 211 210 208 222 236 236 250 249 248 248 233 231 227 214 211 250 263 245 234 226 216 219 227 225 226
172 169 173 183 188 197 199 196 193 191 192 191 191 195 203 203 199 202 205 208 210 218 224 226 241 243 253 258 248 246 244 237 212 221 246 240 244 240 224 248 241 236 232
171 171 179 189 194 200 201 198 197 196 195 198 199 201 200 200 201 202 204 209 216 226 227 225 229 227 237 246 247 247 237 235 229 225 242 246 242 240 199 235 260 253 246
169 178 191 195 194 193 198 204 201 200 207 204 200 206 206 206 209 204 211 214 219 232 239 236 234 229 232 232 239 240 229 226 229 229 241 244 244 233 232 221 237 254 257
172 184 188 186 193 200 200 199 199 206 210 204 204 209 214 226 221 206 202 215 220 227 239 245 248 243 247 246 245 236 218 218 224 226 233 239 246 238 233 225 225 234 259
178 183 182 183 193 202 200 193 199 207 208 210 212 209 218 232 225 211 204 209 218 225 227 234 251 256 246 252 260 258 250 239 220 215 227 239 235 227 214 227 229 230 240
178 187 189 186 191 195 196 203 209 204 205 211 210 211 217 233 221 209 204 208 220 232 227 220 227 248 250 238 252 266 268 262 244 230 229 239 236 223 208 214 224 239 262
184 192 192 186 186 190 200 208 208 200 204 208 208 208 216 237 226 214 203 215 226 240 241 232 222 227 240 221 220 251 273 279 273 249 238 243 247 241 224 198 215 232 266
202 201 196 188 187 196 206 212 208 198 207 207 213 214 215 230 228 217 204 207 221 239 250 249 235 231 242 218 210 227 257 266 275 288 278 279 267 258 239 214 211 226 247
194 182 176 177 189 198 204 208 201 196 194 203 211 227 230 234 233 217 202 204 218 229 240 250 254 256 254 242 227 229 247 254 251 248 261 271 274 269 259 241 226 221 234
128 145 162 174 192 194 176 184 174 167 168 183 188 232 275 277 259 223 203 209 212 211 232 244 256 267 264 257 247 254 261 256 246 252 263 266 266 267 264 255 246 241 237
90 125 146 146 159 165 172 174 154 146 156 177 176 226 273 298 306 268 196 200 212 216 244 260 277 286 275 262 265 272 261 235 226 248 264 271 268 267 269 273 274 267 265
111 159 150 129 126 125 154 158 152 160 166 178 193 247 266 293 307 327 303 276 291 272 290 302 310 311 290 283 295 282 257 232 222 246 267 277 291 298 293 286 279 281 283
104 114 118 124 135 113 85 85 152 178 179 180 204 220 228 259 260 238 209 235 231 220 201 6 354 342 324 316 306 297 287 289 275 282 283 298 305 309 305 305 290 284 273
105 87 110 133 130 123 104 66 50 120 143 162 181 191 231 242 267 260 249 242 242 144 123 142 268 274 272 276 288 297 293 285 277 271 278 281 289 294 302 313 306 285 279
121 118 102 117 131 138 134 132 109 22 44 70 93 189 247 277 318 307 11 46 77 114 115 208 252 263 264 269 268 264 268 275 277 280 288 297 300 304 307 307 306 298 289
100 94 101 136 154 159 164 164 158 151 136 343 340 326 325 341 9 55 78 72 52 78 121 246 263 264 255 254 259 265 278 298 313 314 305 306 306 307 308 304 300 294 290
92 72 96 134 148 157 156 147 140 131 137 155 4 327 326 8 24 31 88 103 146 248 257 267 271 279 289 288 275 275 276 301 311 312 304 293 290 293 298 299 299 299 294
67 64 76 97 110 115 126 136 134 133 132 143 192 246 7 72 56 40 81 159 164 258 315 313 332 355 348 343 340 347 357 348 338 333 315 303 295 288 286 288 290 295 291
61 52 57 68 92 104 110 130 146 144 144 147 175 189 145 120 137 162 162 92 77 347 352 358 2 10 14 1 349 4 10 339 336 319 306 301 300 296 289 283 281 283 288
70 57 58 70 81 80 91 118 128 137 146 151 150 82 145 119 117 100 72 33 14 346 83 78 44 27 22 25 5 349 319 304 303 306 306 305 304 303 304 303 304 299 297
64 59 54 52 70 65 57 55 86 111 119 132 134 114 105 123 135 131 109 50 31 44 74 85 87 50 30 24 15 14 338 310 299 292 295 296 298 300 301 301 303 307 306
60 54 60 60 64 73 76 68 68 77 95 103 100 100 101 117 115 111 111 75 57 61 64 73 81 67 48 38 22 11 351 333 324 308 298 291 294 298 302 304 302 300 300
58 54 63 76 82 87 86 74 61 63 73 80 83 78 69 75 74 70 70 66 64 62 55 60 61 57 47 28 13 3 354 352 347 334 313 299 297 298 300 300 301 302 300
56 57 67 82 92 91 94 94 85 80 74 71 73 76 74 66 64 68 77 78 72 55 48 55 45 35 20 13 6 2 358 354 348 340 326 313 308 304 308 303 302 303 301
Height
1520 1522 1523 1525 1527 1528 1529 1530 1531 1532 1533 1533 1534 1534 1535 1535 1536 1536 1536 1536 1537 1537 1537 1537 1537 1538 1538 1538 1538 1538 1538 1538 1537 1536 1536 1536 1535 1535 1535 1535 1535 1534 1535
1518 1520 1521 1523 1524 1525 1526 1527 1529 1530 1530 1531 1532 1532 1533 1533 1534 1534 1534 1534 1534 1534 1535 1535 1535 1535 1535 1535 1535 1535 1535 1534 1534 1532 1532 1532 1532 1531 1531 1531 1531 1531 1531
1516 1517 1519 1520 1522 1522 1523 1525 1526 1527 1528 1529 1530 1530 1530 1531 1531 1531 1532 1532 1532 1532 1532 1532 1532 1532 1532 1532 1532 1532 1531 1531 1531 1530 1529 1529 1528 1528 1527 1527 1527 1526 1526
1513 1514 1516 1517 1518 1520 1521 1522 1523 1524 1525 1526 1526 1527 1528 1528 1528 1529 1529 1529 1530 1529 1529 1530 1530 1530 1529 1529 1529 1528 1528 1528 1527 1527 1526 1526 1525 1525 1524 1523 1522 1522 1522
1510 1512 1513 1515 1516 1517 1518 1519 1520 1521 1522 1523 1524 1524 1525 1525 1526 1526 1526 1526 1526 1526 1527 1527 1527 1527 1526 1526 1526 1525 1525 1525 1524 1523 1523 1522 1521 1521 1520 1520 1519 1518 1518
1508 1509 1510 1511 1513 1514 1514 1515 1517 1518 1519 1520 1520 1521 1521 1522 1522 1523 1523 1523 1523 1523 1523 1523 1523 1523 1523 1523 1522 1522 1522 1521 1520 1520 1519 1519 1518 1518 1517 1517 1516 1515 1514
1505 1505 1506 1508 1509 1510 1511 1512 1513 1514 1515 1516 1517 1517 1518 1518 1519 1519 1519 1519 1519 1520 1520 1520 1520 1519 1519 1519 1518 1518 1518 1517 1517 1517 1516 1515 1514 1514 1514 1513 1512 1512 1510
1502 1502 1503 1504 1505 1507 1508 1509 1510 1511 1512 1512 1513 1513 1514 1514 1515 1516 1516 1516 1516 1515 1516 1516 1515 1515 1515 1515 1515 1514 1513 1513 1513 1513 1512 1511 1511 1510 1510 1510 1509 1508 1507
1499 1499 1500 1501 1502 1503 1504 1505 1506 1507 1508 1509 1509 1510 1510 1510 1511 1511 1512 1512 1511 1511 1511 1511 1511 1511 1511 1511 1511 1510 1509 1509 1509 1509 1508 1508 1507 1506 1505 1505 1504 1503 1501
1496 1496 1497 1498 1499 1500 1501 1502 1503 1504 1504 1505 1505 1506 1506 1506 1507 1507 1507 1507 1507 1507 1507 1507 1507 1507 1507 1507 1506 1506 1505 1505 1505 1504 1504 1503 1502 1502 1501 1501 1500 1499 1497
1494 1494 1494 1495 1496 1497 1497 1498 1499 1500 1500 1501 1502 1502 1502 1502 1503 1503 1503 1503 1503 1503 1503 1503 1503 1503 1502 1502 1502 1502 1501 1501 1500 1499 1499 1498 1498 1497 1496 1496 1495 1494 1493
1492 1492 1492 1493 1494 1494 1494 1495 1495 1496 1497 1497 1498 1498 1498 1498 1499 1498 1499 1499 1498 1498 1498 1498 1498 1498 1498 1498 1497 1497 1497 1497 1496 1495 1494 1493 1492 1492 1491 1491 1490 1489 1488
1490 1490 1490 1490 1491 1492 1492 1492 1492 1492 1493 1493 1494 1494 1494 1494 1494 1494 1494 1494 1494 1494 1493 1493 1494 1494 1493 1493 1493 1492 1492 1492 1491 1490 1489 1488 1488 1488 1487 1485 1484 1483 1482
1488 1488 1488 1489 1489 1490 1490 1489 1489 1489 1489 1490 1490 1491 1490 1490 1490 1490 1489 1490 1490 1490 1490 1490 1489 1489 1489 1489 1488 1488 1488 1487 1487 1486 1485 1485 1484 1483 1482 1480 1479 1477 1476
1485 1486 1487 1487 1487 1487 1487 1487 1487 1487 1487 1488 1488 1487 1487 1486 1486 1486 1486 1485 1485 1485 1486 1486 1486 1485 1485 1484 1484 1484 1483 1483 1482 1482 1481 1480 1479 1478 1477 1476 1474 1473 1471
1484 1484 1485 1485 1485 1485 1485 1485 1485 1486 1485 1485 1485 1485 1483 1483 1482 1482 1483 1482 1482 1481 1481 1482 1482 1482 1481 1481 1480 1480 1479 1479 1478 1477 1477 1476 1475 1474 1472 1471 1470 1468 1467
1483 1483 1483 1483 1484 1484 1484 1483 1483 1483 1483 1483 1482 1481 1480 1479 1479 1479 1478 1479 1479 1479 1479 1479 1479 1478 1478 1478 1477 1476 1475 1475 1474 1473 1473 1472 1470 1469 1468 1466 1465 1463 1462
1482 1482 1482 1482 1482 1483 1483 1482 1482 1481 1480 1480 1479 1479 1478 1477 1476 1476 1476 1477 1477 1476 1476 1476 1476 1475 1475 1474 1474 1473 1472 1471 1470 1470 1469 1467 1466 1465 1464 1462 1460 1459 1457
1481 1481 1481 1481 1482 1482 1482 1481 1481 1480 1479 1479 1478 1477 1476 1475 1474 1474 1475 1475 1474 1474 1473 1473 1473 1472 1472 1471 1470 1470 1469 1468 1467 1466 1465 1464 1462 1461 1459 1458 1456 1454 1452
1481 1481 1481 1481 1481 1480 1480 1480 1479 1479 1478 1478 1477 1477 1476 1474 1473 1473 1474 1473 1473 1472 1471 1471 1470 1470 1469 1468 1468 1467 1466 1465 1464 1463 1461 1460 1459 1457 1456 1454 1452 1450 1448
1481 1481 1481 1481 1480 1480 1479 1479 1479 1478 1477 1477 1477 1476 1475 1474 1473 1473 1473 1472 1471 1470 1470 1469 1468 1467 1467 1466 1465 1464 1463 1462 1460 1459 1458 1457 1455 1453 1452 1450 1448 1446 1444
1481 1481 1480 1480 1480 1479 1479 1479 1478 1477 1477 1476 1476 1476 1475 1474 1473 1472 1472 1471 1471 1470 1468 1467 1466 1465 1465 1463 1462 1461 1460 1458 1457 1455 1454 1453 1451 1449 1447 1445 1443 1441 1439
1481 1481 1480 1480 1479 1479 1478 1478 1478 1477 1477 1476 1475 1475 1474 1474 1473 1472 1471 1470 1469 1468 1466 1465 1464 1463 1462 1461 1460 1458 1457 1455 1454 1452 1450 1449 1447 1445 1444 1441 1439 1437 1435
1481 1480 1480 1479 1479 1479 1478 1478 1477 1477 1476 1476 1475 1474 1474 1473 1472 1471 1470 1469 1468 1466 1465 1464 1462 1461 1460 1458 1457 1455 1454 1452 1451 1449 1447 1445 1443 1441 1440 1438 1436 1433 1431
1481 1480 1480 1479 1479 1478 1478 1478 1477 1477 1476 1475 1474 1473 1473 1472 1471 1470 1469 1468 1466 1465 1463 1462 1461 1459 1458 1456 1454 1453 1451 1449 1447 1445 1443 1441 1439 1437 1435 1433 1431 1429 1427
1481 1480 1480 1480 1479 1478 1478 1477 1477 1476 1475 1474 1473 1472 1471 1470 1469 1468 1467 1466 1465 1463 1462 1460 1459 1457 1455 1454 1452 1450 1448 1446 1444 1441 1439 1437 1435 1433 1430 1428 1426 1424 1422